Flag for U.S.A. Weather past 2 weeks in Baltimore, Maryland, U.S.A.

Now
23 °F

Light snow. Ice fog.


Feels Like: 15 °F
Forecast: 21 / 32 °F
Wind: 7 mph from North

Location: Baltimore-Washington International Airport

Current Time: Mar 5, 2015 at 6:24:34 PM

Latest Report: Mar 5, 2015 at 5:54 PM


Visibility: 3 mi

Pressure: 30.27 "Hg

Humidity: 81%

Dew point: 18 °F

Location of BaltimoreLocation

Historic Weather in Baltimore — Graph

°F

Baltimore temperature yesterday

Maximum temperature yesterday: 45 °F (at 2:54 PM)
Minimum temperature yesterday: 37 °F (at 3:54 AM)
Average temperature yesterday: 40 °F

Past Weeks' High & Low Weather Summary

 TemperatureHumidityPressure
High46 °F (Feb 22, 2:54 PM)100% (Mar 1, 11:58 PM)30.86 "Hg (Mar 1, 11:58 PM)
Low1 °F (Feb 20, 6:54 AM)26% (Feb 28, 2:54 PM)29.74 "Hg (Feb 18, 5:54 PM)
Average26 °F65%30.23 "Hg
* Reported Feb 18 5:54 PM — Mar 5 5:02 PM, Baltimore, Weather by CustomWeather, © 2015

Note: Actual official high and low records may vary slightly from our data, if they occured in-between our weather recording intervals... More about our weather records

Advertising

Baltimore weather history for previous 24 hours

 ConditionsComfort  
Time TempWeatherWind HumidityBarometerVisibility
5:02 PM
Thu, Mar 5
25 °FLight snow. Ice fog.8 mph80%30.26 "Hg1 mi
3:54 PM25 °FSnow. Ice fog.9 mph88%30.20 "Hg1 mi
2:54 PM27 °FHeavy snow. Ice fog.6 mph89%30.18 "Hg0 mi
2:00 PM28 °FHeavy snow. Ice fog.6 mph93%30.18 "Hg0 mi
1:12 PM28 °FLight snow. Ice fog.7 mph93%30.17 "Hg1 mi
12:54 PM29 °FLight snow. Ice fog.8 mph93%30.15 "Hg1 mi
12:34 PM28 °FLight snow. Ice fog.12 mph93%30.14 "Hg1 mi
12:11 PM30 °FHeavy snow. Ice fog.12 mph93%30.14 "Hg0 mi
11:54 AM30 °FSnow. Ice fog.8 mph92%30.16 "Hg1 mi
10:54 AM31 °FSnow. Ice fog.12 mph92%30.15 "Hg1 mi
9:54 AM31 °FSnow. Mostly cloudy.7 mph96%30.11 "Hg1 mi
8:54 AM31 °FLight snow. Mostly cloudy.7 mph96%30.11 "Hg1 mi
7:54 AM32 °FLight snow. Mostly cloudy.8 mph92%30.11 "Hg1 mi
6:54 AM34 °FSleet. Fog.6 mph92%30.05 "Hg3 mi
5:54 AM35 °FDrizzle. Fog.6 mph88%30.04 "Hg5 mi
4:54 AM36 °FLight rain. Overcast.7 mph89%30.00 "Hg8 mi
3:54 AM37 °FLight rain. Mostly cloudy.9 mph89%29.99 "Hg8 mi
2:54 AM38 °FLight rain. Fog.3 mph97%29.96 "Hg6 mi
1:54 AM39 °FLight rain. Fog.6 mph96%29.98 "Hg4 mi
12:54 AM38 °FLight rain. Fog.No wind100%29.96 "Hg4 mi
11:54 PM
Wed, Mar 4
39 °FLight rain. Fog.No wind96%29.94 "Hg2 mi
10:54 PM41 °FLight rain. Fog.3 mph96%29.95 "Hg2 mi
9:54 PM42 °FLight rain. Fog.No wind96%29.94 "Hg2 mi
8:54 PM41 °FRain. Fog.No wind96%29.93 "Hg1 mi
7:54 PM41 °FLight rain. Fog.3 mph96%29.91 "Hg1 mi
6:54 PM40 °FLight rain. Fog.3 mph97%29.88 "Hg1 mi
Weather by CustomWeather, © 2015

See weather overviewHow to use our weather pages